This demonstration page uses our WeatherBlox Daily Observations layout. Learn more.

Left ArrowRight Arrow

39.01783, -85.05884

Hourly Observations for October 12, 2018

Temp ( °F °C ) Dew Point ( °F °C ) Humidity (%) Winds ( mph kmh ) Pressure ( in mb ) Visibility ( mi km ) Precip ( " mm )
12:52 am 00:52 Clear 47 8.3 37 2.8 69 69 NW 8 13 30.00 1016 10 16 N/A
1:52 am 01:52 Clear 46 7.8 37 2.8 71 71 NW 12 19 30.01 1016 10 16 N/A
2:52 am 02:52 Clear 43 6.1 37 2.8 80 80 WNW 6 9 30.01 1016 10 16 N/A
3:52 am 03:52 Clear 41 5 36 2.2 82 82 W 6 9 30.02 1017 10 16 N/A
4:52 am 04:52 Clear 41 5 36 2.2 82 82 W 5 7 30.03 1017 10 16 N/A
5:52 am 05:52 Clear 42 5.6 36 2.2 79 79 WNW 6 9 30.03 1017 10 16 N/A
6:52 am 06:52 Clear 40 4.4 36 2.2 86 86 WNW 7 11 30.03 1017 10 16 N/A
7:52 am 07:52 Mostly Sunny 38 3.3 35 1.7 89 89 W 5 7 30.03 1017 10 16 N/A
8:52 am 08:52 Mostly Sunny 42 5.6 37 2.8 82 82 W 3 6 30.02 1017 10 16 N/A
9:52 am 09:52 Partly Cloudy 45 7.2 38 3.3 77 77 WNW 3 6 30.02 1017 10 16 N/A
10:52 am 10:52 Partly Cloudy 48 8.9 37 2.8 66 66 NNW 5 7 30.03 1017 10 16 N/A
11:52 am 11:52 Mostly Cloudy 50 10 37 2.8 61 61 N N/A 30.01 1016 10 16 N/A
12:52 pm 12:52 Mostly Cloudy 50 10 38 3.3 63 63 VRB 3 6 29.99 1016 10 16 N/A
1:52 pm 13:52 Mostly Cloudy 52 11.1 36 2.2 55 55 W 9 15 29.97 1015 10 16 N/A
2:52 pm 14:52 Cloudy 53 11.7 36 2.2 52 52 VRB 3 6 29.94 1014 10 16 N/A
3:52 pm 15:52 Cloudy 54 12.2 35 1.7 49 49 W 7 11 29.92 1013 10 16 N/A
4:52 pm 16:52 Cloudy 54 12.2 33 0.6 45 45 W 8 13 29.92 1013 10 16 N/A
5:52 pm 17:52 Cloudy with Light Rain 52 11.1 36 2.2 55 55 W 7 11 29.91 1013 10 16 N/A
6:52 pm 18:52 Cloudy 50 10 37 2.8 61 61 WNW 9 15 29.91 1013 10 16 N/A
7:52 pm 19:52 Cloudy with Light Rain 47 8.3 39 3.9 74 74 WNW 13 20 29.91 1013 10 16 N/A
8:52 pm 20:52 Cloudy with Rain 44 6.7 41 5 89 89 NW 10 17 29.92 1013 6 10 0.13 3.30
9:52 pm 21:52 Cloudy with Light Rain 43 6.1 40 4.4 89 89 WNW 6 9 29.91 1013 9 14 0.04 1.02
10:52 pm 22:52 Cloudy with Light Rain 43 6.1 39 3.9 86 86 W 6 9 29.92 1013 6 10 0.07 1.78
11:15 pm 23:15 Cloudy with Light Rain 43 6 N/A N/A WNW 12 19 29.94 1014 6 10 0.02 0.51
11:52 pm 23:52 Cloudy 42 5.6 39 3.9 89 89 WNW 10 17 29.92 1013 10 16 0.03 0.76

Powered by AerisWeather